Flag for Norway Weather past 2 weeks in Stjørdal, Norway

Now
42 °F

Quite cool.


Feels Like: 37 °F
Forecast: 30 / 39 °F
Wind: 9 mph from South

Location: Trondheim / Vaernes

Current Time: Feb 27, 2015 at 8:07:44 AM

Latest Report: Feb 27, 2015 at 7:00 AM


Visibility: 31 mi

Pressure: 29.54 "Hg

Humidity: 58%

Dew point: 28 °F

Location of StjørdalLocation

Historic Weather in Stjørdal — Graph

°F

Stjørdal temperature yesterday

Maximum temperature yesterday: 42 °F (at 7:00 PM)
Minimum temperature yesterday: 31 °F (at 1:00 AM)
Average temperature yesterday: 40 °F

Past Weeks' High & Low Weather Summary

 TemperatureHumidityPressure
High48 °F (Feb 19, 2:00 PM)99% (Feb 14, 6:00 AM)30.33 "Hg (Feb 14, 6:00 AM)
Low25 °F (Feb 13, 2:00 AM)37% (Feb 17, 3:00 PM)28.79 "Hg (Feb 23, 11:00 AM)
Average36 °F71%29.58 "Hg
* Reported Feb 12 7:00 AM — Feb 27 7:00 AM, Stjørdal, Weather by CustomWeather, © 2015

Note: Actual official high and low records may vary slightly from our data, if they occured in-between our weather recording intervals... More about our weather records

Advertising

Stjørdal weather history for previous 24 hours

 ConditionsComfort  
Time TempWeatherWind HumidityBarometerVisibility
7:00 AM
Fri, Feb 27
42 °FQuite cool.9 mph58%29.54 "Hg31 mi
6:00 AM42 °FQuite cool.7 mph58%29.54 "Hg31 mi
5:00 AM42 °FPassing clouds.6 mph58%29.54 "Hg31 mi
2:00 AM42 °FQuite cool.9 mph59%29.53 "Hg31 mi
1:00 AM41 °FQuite cool.12 mph58%29.50 "Hg31 mi
12:00 AM42 °FQuite cool.10 mph57%29.50 "Hg31 mi
11:00 PM
Thu, Feb 26
42 °FQuite cool.13 mph57%29.50 "Hg31 mi
10:00 PM42 °FQuite cool.16 mph58%29.47 "Hg31 mi
9:00 PM42 °FQuite cool.18 mph55%29.47 "Hg31 mi
8:00 PM42 °FQuite cool.16 mph55%29.47 "Hg31 mi
7:00 PM42 °FQuite cool.16 mph55%29.47 "Hg31 mi
6:00 PM42 °FQuite cool.14 mph55%29.47 "Hg31 mi
5:00 PM42 °FQuite cool.14 mph55%29.50 "Hg31 mi
4:00 PM42 °FQuite cool.10 mph58%29.50 "Hg31 mi
3:00 PM40 °FQuite cool.9 mph62%29.50 "Hg31 mi
2:00 PM39 °FLight rain. Passing clouds.10 mph70%29.53 "Hg31 mi
1:00 PM37 °FLight rain. Light fog.13 mph83%29.54 "Hg7 mi
12:00 PM36 °FRain. Cloudy.9 mph85%29.55 "Hg4 mi
11:00 AM37 °FLight rain. Fog.9 mph82%29.56 "Hg3 mi
10:00 AM42 °FQuite cool.8 mph55%29.57 "Hg31 mi
9:00 AM40 °FOvercast.10 mph54%29.58 "Hg31 mi
8:00 AM40 °FSunny.10 mph54%29.60 "Hg31 mi
Weather by CustomWeather, © 2015

See weather overviewHow to use our weather pages